Terug naar catalogus

FENGYUN 1C DEB

ActiefPO
NORAD 31644·DEBRIS·🇨🇳 China

Gelanceerd May 10, 1999 vanaf Taiyuan Satellite Launch Center

Loading…

Volgende Passages (komende 24 uur)

TLE

VersSource: Space-Track

Epoch: Sep 13, 2026, 14:03 UTC

1 31644U 99025CBA 26256.58562882  .00005267  00000-0  73210-3 0  9994
2 31644  98.6476 168.1359 0148705  44.3075  75.0057 14.70936264750818

Volg FENGYUN 1C DEB in realtime met AllMySat

Download on the App Store